Ord, NE

12:48 PM CDT on May 26, 2017 (GMT -0500)
Sharp

Weather History for KODX - May, 2013

Change the Weather History Date:

Thursday, May 16, 2013

  Actual Average Record
Temperature  
Mean Temperature 66 °F 59 °F  
Max Temperature 78 °F 72 °F 89 °F (1997)
Min Temperature 54 °F 47 °F 27 °F (2014)
Degree Days  
Heating Degree Days 0 7  
Month to date heating degree days 184 146  
Since 1 July heating degree days 6786 6499  
Cooling Degree Days 1 1  
Month to date cooling degree days 22 12  
Year to date cooling degree days 23 14  
Growing Degree Days 16 (Base 50)    
Moisture  
Dew Point 55 °F    
Average Humidity 67    
Maximum Humidity 93    
Minimum Humidity 40    
Precipitation  
Precipitation 0.42 in 0.11 in 1.56 in (1902)
Month to date precipitation 1.80 1.75  
Year to date precipitation 6.54 6.60  
Sea Level Pressure  
Sea Level Pressure 29.80 in    
Wind  
Wind Speed 5 mph (SSE)    
Max Wind Speed 28 mph    
Max Gust Speed 43 mph    
Visibility 8 miles    
Events Rain , Thunderstorm    
T = Trace of Precipitation, MM = Missing Value Source: NWS Daily Summary

Daily Weather History Graph

Daily Weather History Graph

Search for Another Location

Airport or City:

Trip Planner

Search our weather history database for the weather conditions in past years. The results will help you decide how hot, cold, wet, or windy it might be!

Date:

Astronomy

May. 16, 2013 Rise Set
Actual Time 6:15 AM CDT 8:49 PM CDT
Civil Twilight 5:43 AM CDT 9:21 PM CDT
Nautical Twilight 5:03 AM CDT 10:01 PM CDT
Astronomical Twilight 4:18 AM CDT 10:46 PM CDT
Moon 11:51 AM CDT (5/16) 1:10 AM CDT (5/16)
Length of Visible Light 15h 38m
Length of Day
14h 34m
Waxing Crescent, 36% of the Moon is Illuminated
May 16
Waxing Crescent
May 17
First Quarter
May 24
Full
May 31
Last Quarter
Jun 8
New

Hourly Weather History & Observations

Time (CDT) Temp. Dew Point Humidity Pressure Visibility Wind Dir Wind Speed Gust Speed Precip Events Conditions
12:53 AM 64.9 °F 41.0 °F 42% 29.85 in 10.0 mi Calm Calm - N/A   Overcast
1:53 AM 66.9 °F 41.0 °F 39% 29.84 in 10.0 mi SE 5.8 mph - N/A   Overcast
2:53 AM 62.1 °F 43.0 °F 50% 29.83 in 10.0 mi Calm Calm - N/A   Clear
3:53 AM 57.0 °F 44.1 °F 62% 29.82 in 10.0 mi Calm Calm - N/A   Clear
4:53 AM 54.0 °F 46.0 °F 75% 29.83 in 10.0 mi Calm Calm - N/A   Clear
5:53 AM 57.9 °F 45.0 °F 62% 29.83 in 10.0 mi ESE 3.5 mph - N/A   Partly Cloudy
6:53 AM 57.0 °F 46.0 °F 67% 29.83 in 10.0 mi Calm Calm - N/A   Clear
7:53 AM 61.0 °F 46.9 °F 60% 29.83 in 10.0 mi SW 18.4 mph 32.2 mph N/A   Scattered Clouds
8:53 AM 66.0 °F 50.0 °F 56% 29.82 in 10.0 mi ESE 9.2 mph 23.0 mph N/A   Partly Cloudy
9:53 AM 70.0 °F 55.0 °F 59% 29.82 in 10.0 mi ESE 9.2 mph 17.3 mph N/A   Mostly Cloudy
10:53 AM 73.0 °F 57.0 °F 57% 29.80 in 10.0 mi SE 13.8 mph 20.7 mph N/A   Scattered Clouds
11:53 AM 71.1 °F 59.0 °F 66% 29.80 in 0.2 mi SE 9.2 mph - 0.01 in   Haze
12:02 PM 71.6 °F 59.0 °F 64% 29.83 in - South 3.5 mph - N/A   Overcast
12:27 PM 68.0 °F 62.6 °F 83% 29.84 in - NW 11.5 mph - 0.00 in Thunderstorm Thunderstorm
12:36 PM 66.2 °F 62.6 °F 88% 29.84 in 2.0 mi WNW 17.3 mph 20.7 mph 0.07 in Rain Heavy Rain
1:53 PM 71.6 °F 60.8 °F 69% 29.79 in 10.0 mi Calm Calm - N/A   Partly Cloudy
2:53 PM 73.9 °F 64.0 °F 71% 29.76 in 10.0 mi NNW 5.8 mph - N/A   Clear
3:53 PM 75.0 °F 63.0 °F 66% 29.76 in 10.0 mi Calm Calm - N/A   Overcast
4:53 PM 77.0 °F 57.9 °F 52% 29.74 in 10.0 mi SW 3.5 mph - N/A   Overcast
5:53 PM 78.1 °F 55.9 °F 46% 29.72 in 10.0 mi South 8.1 mph - N/A Thunderstorm Scattered Clouds
6:16 PM 68.0 °F 59.0 °F 73% 29.76 in 8.0 mi SSE 11.5 mph 23.0 mph 0.02 in Rain Rain
6:28 PM 69.8 °F 59.0 °F 68% 29.75 in 7.0 mi South 6.9 mph - 0.04 in Rain , Thunderstorm Rain
6:44 PM 62.6 °F 57.2 °F 82% 29.80 in 2.0 mi SW 18.4 mph 42.6 mph 0.13 in Rain , Thunderstorm Heavy Thunderstorms and Rain
6:51 PM 62.6 °F 57.2 °F 82% 29.80 in 1.2 mi South 9.2 mph - 0.26 in Rain , Thunderstorm Heavy Thunderstorms and Rain
6:53 PM 63.0 °F 59.0 °F 87% 29.79 in 1.2 mi South 5.8 mph - 0.27 in Rain , Thunderstorm Heavy Thunderstorms and Rain
7:00 PM 62.6 °F 59.0 °F 88% 29.79 in 3.0 mi SSE 8.1 mph - 0.01 in Rain , Thunderstorm Thunderstorms and Rain
7:36 PM 62.6 °F 60.8 °F 94% 29.77 in 10.0 mi East 5.8 mph - 0.02 in   Overcast
7:53 PM 63.0 °F 60.1 °F 90% 29.76 in 10.0 mi ESE 6.9 mph - 0.02 in   Scattered Clouds
8:53 PM 63.0 °F 60.1 °F 90% 29.77 in 10.0 mi Calm Calm - 0.00 in   Scattered Clouds
9:53 PM 63.0 °F 59.0 °F 87% 29.79 in 10.0 mi ESE 5.8 mph - N/A   Mostly Cloudy
10:53 PM 60.1 °F 57.9 °F 93% 29.81 in 10.0 mi Calm Calm - N/A   Clear
11:53 PM 59.0 °F 57.0 °F 93% 29.80 in 10.0 mi Calm Calm - N/A   Clear